Wind_Speed
18 18 19 19 19 19 20 20 20 20 20 20 20 20 21 21 21 21 21 22 21 22 22 22 22 21 21 22 22 21 20 20 20 20 20 21 21 21 20 19 19 19 19
19 19 20 20 20 20 20 20 20 20 21 21 21 21 22 22 22 21 21 21 22 22 22 22 22 22 22 22 22 21 21 20 21 20 20 20 20 20 20 19 19 19 20
20 20 21 21 21 21 21 21 20 21 21 21 22 22 22 22 22 21 21 21 22 22 23 23 23 23 23 22 22 21 20 20 19 19 19 19 19 20 20 20 20 20 20
21 21 22 22 22 22 22 22 22 22 22 22 22 21 21 22 22 21 21 22 22 23 23 23 23 23 22 22 21 20 20 20 19 19 18 19 19 19 19 20 20 20 20
22 22 22 23 23 22 22 22 22 22 22 23 23 22 22 23 22 22 22 23 23 23 23 23 23 23 22 22 21 20 20 19 19 18 18 18 18 19 19 19 19 19 19
22 23 23 23 22 22 22 22 23 22 23 23 23 23 23 23 22 23 23 23 23 23 23 22 22 22 21 21 20 20 19 18 18 18 18 17 17 18 18 18 18 18 18
23 23 23 23 22 22 22 23 22 23 23 23 24 23 23 23 22 22 23 24 24 24 23 22 22 21 21 21 21 21 20 19 19 18 18 18 17 18 18 18 18 17 18
23 23 23 22 22 23 23 22 23 23 24 24 24 24 24 23 22 22 23 23 23 23 22 21 22 23 22 22 21 21 20 19 19 19 19 19 18 18 18 19 18 18 18
24 23 23 23 23 24 23 23 23 24 25 24 24 24 24 24 24 24 24 24 24 23 23 23 23 23 22 22 21 21 21 20 20 20 20 20 19 19 19 20 19 19 19
24 24 24 24 24 24 24 24 24 25 25 25 25 25 26 26 26 26 25 25 24 24 24 24 24 23 23 22 22 21 21 20 21 21 20 20 20 21 21 21 20 20 20
25 24 24 23 24 24 24 24 24 25 25 25 26 26 26 27 26 26 26 25 25 24 24 24 24 24 23 23 23 22 21 21 21 21 21 21 21 22 22 22 22 22 22
25 25 24 24 25 24 24 24 25 25 26 26 27 27 27 27 27 27 26 26 25 24 24 24 24 24 23 23 23 23 22 22 21 22 22 22 22 22 22 23 23 24 24
25 25 25 25 26 26 26 26 26 26 27 27 27 27 27 27 28 27 27 26 25 25 24 24 24 24 23 23 23 24 23 23 23 23 23 23 23 22 23 23 24 25 25
26 26 26 26 26 26 26 26 27 26 26 26 27 27 27 27 28 27 27 26 25 25 24 25 25 25 24 23 24 24 24 24 24 24 24 24 25 25 25 25 25 26 27
27 27 26 26 26 26 26 27 27 27 27 27 28 28 28 28 28 29 27 26 25 25 25 25 25 25 25 25 25 25 25 25 25 25 26 26 26 27 27 27 27 27 27
27 27 27 27 27 27 27 27 27 27 28 28 28 28 29 28 29 29 28 27 27 26 26 26 26 27 27 26 26 26 26 26 26 26 27 28 28 28 28 28 28 28 29
27 27 27 27 27 27 27 27 28 28 29 29 30 29 29 30 29 29 28 28 28 27 27 27 27 27 28 28 27 27 28 28 28 28 28 29 29 29 30 29 30 30 30
28 28 27 27 27 27 27 28 28 28 29 29 30 30 30 30 30 29 29 29 28 27 27 27 27 27 28 28 28 29 29 30 30 30 30 31 31 31 31 31 30 30 30
27 27 27 27 27 27 27 28 29 29 29 30 30 29 30 30 29 29 29 29 28 28 27 28 28 28 29 29 29 30 30 30 30 31 31 32 32 32 32 32 32 31 31
27 27 27 27 28 28 28 29 29 29 29 29 29 29 29 29 29 29 29 29 29 28 28 28 29 29 30 30 30 31 31 31 31 31 32 32 32 32 33 33 33 33 32
27 27 27 27 28 28 29 29 30 30 30 29 29 29 29 29 29 29 29 30 30 29 29 29 29 29 30 31 31 31 31 31 31 32 32 33 33 33 33 33 33 33 32
26 27 27 27 28 28 29 30 30 29 29 30 30 29 29 29 29 29 29 29 30 30 30 29 29 30 30 31 31 32 32 32 32 33 33 33 33 33 33 33 33 33 33
27 27 28 29 29 29 29 30 30 30 30 30 30 30 30 30 30 30 30 30 30 31 31 30 30 30 30 31 31 31 32 32 33 33 33 34 34 34 34 34 34 33 33
28 28 28 29 30 30 31 31 31 31 31 31 30 30 30 30 30 31 31 30 30 31 31 31 31 31 31 31 31 31 31 31 32 32 33 34 34 34 34 34 33 33 33
29 29 29 29 30 31 31 31 31 31 32 32 31 31 31 31 31 31 30 30 30 30 31 32 31 31 31 31 31 31 30 31 31 32 32 33 33 33 33 33 33 33 33
29 29 30 30 30 31 31 31 31 32 32 32 32 32 31 32 31 31 31 31 31 30 31 31 32 32 32 32 32 32 31 31 32 32 32 32 32 32 32 32 32 32 33
Wind_Direction
279 280 283 284 284 285 286 287 287 286 286 288 289 290 291 293 292 291 292 291 291 292 291 290 289 290 290 289 287 286 284 281 279 279 277 276 275 273 269 264 262 261 259
278 279 282 283 284 286 286 287 286 287 288 289 290 290 291 292 291 291 290 291 292 292 291 290 289 290 290 289 287 287 284 281 280 278 278 275 274 272 268 266 262 261 259
278 280 281 283 284 284 285 286 285 287 289 289 290 291 292 293 290 288 289 291 292 292 291 292 290 289 288 286 287 287 285 283 282 279 278 277 273 269 266 264 262 260 259
278 279 281 282 283 283 282 284 285 285 287 287 289 290 293 295 292 289 289 290 292 292 291 291 289 286 284 285 286 284 282 283 282 280 279 276 272 267 263 263 261 259 257
279 279 281 282 282 281 281 283 285 286 286 286 288 288 292 294 294 291 290 292 293 292 291 288 285 283 283 284 286 285 283 281 280 279 278 274 272 268 264 262 260 257 254
278 279 280 282 281 280 281 283 284 285 286 287 288 290 291 292 292 292 290 292 293 292 292 287 284 283 282 284 284 285 282 278 276 275 274 274 272 269 264 261 260 258 255
279 279 279 280 281 281 282 283 284 285 286 286 287 290 291 290 290 293 292 291 291 290 288 285 283 283 282 283 283 282 279 276 275 275 275 275 273 270 267 265 264 264 261
281 282 280 280 280 280 281 282 283 284 285 285 287 288 290 290 289 293 293 293 292 290 288 286 284 283 281 282 281 280 279 277 276 276 276 277 274 271 268 267 266 264 263
280 281 282 280 279 280 280 281 282 283 285 286 289 289 289 288 288 290 291 291 291 288 286 285 284 282 281 280 280 278 278 276 275 275 275 274 273 273 270 268 266 264 263
279 280 282 280 279 280 281 281 281 283 285 287 289 289 289 289 289 289 289 289 288 286 284 283 282 281 279 278 277 277 277 275 273 274 276 276 275 274 272 270 267 264 263
278 280 281 279 280 281 281 282 282 283 285 287 289 290 290 290 289 289 288 287 287 285 283 281 280 280 279 277 276 276 276 275 273 272 274 274 274 274 274 271 266 264 263
277 278 279 278 280 281 281 282 283 284 285 287 288 290 291 291 290 290 288 287 286 286 283 282 281 281 279 278 278 277 276 276 274 272 273 274 274 273 273 272 266 263 263
277 278 278 278 279 280 281 282 284 285 285 286 287 289 291 291 290 288 288 287 285 285 284 283 283 280 278 277 277 276 276 276 275 274 273 275 275 274 274 273 267 263 263
277 276 277 278 279 281 281 282 284 284 285 286 288 289 290 290 290 288 287 286 284 282 281 283 283 280 277 277 278 277 275 274 274 274 274 275 276 276 275 275 272 267 265
277 277 277 277 278 279 281 283 284 283 283 285 286 288 288 288 288 287 287 285 282 280 279 281 281 280 279 279 279 278 276 275 273 273 273 274 275 276 276 276 276 273 269
277 277 277 278 278 279 281 282 283 283 285 285 286 287 288 288 288 287 284 282 279 279 280 280 279 278 279 279 279 279 277 276 275 274 274 275 276 276 276 276 277 275 272
278 278 278 279 280 281 281 281 283 285 287 287 288 288 289 288 288 286 283 282 280 278 278 279 278 277 278 278 279 279 278 276 276 275 276 277 277 277 276 276 276 277 274
279 279 279 280 280 281 282 282 283 286 288 289 289 288 289 289 287 285 283 282 281 280 279 278 277 277 277 277 278 279 279 277 276 276 276 277 277 276 276 275 276 276 275
278 278 278 278 279 280 282 284 285 287 288 289 289 287 287 287 286 285 284 282 281 281 279 277 276 277 278 278 278 279 279 278 277 277 277 278 278 277 277 276 275 276 275
278 277 278 279 279 280 282 285 287 288 289 289 288 288 287 286 285 285 284 282 281 279 279 278 277 277 278 279 278 278 278 277 277 278 279 279 278 278 277 277 276 276 275
277 276 277 279 280 282 283 285 287 288 288 288 288 288 288 287 286 285 284 283 282 280 279 278 277 277 278 279 279 279 278 277 278 278 279 279 278 278 278 278 277 276 273
276 276 277 279 281 282 284 285 286 287 287 288 288 287 287 286 285 284 284 283 283 281 280 279 279 279 279 280 280 279 278 278 278 278 278 278 279 279 279 278 277 275 272
278 277 278 280 281 282 284 285 286 287 288 288 287 286 286 286 285 285 285 284 283 283 282 281 281 280 280 281 282 282 280 279 278 278 278 279 280 280 279 278 277 275 273
279 280 280 281 282 283 284 285 286 286 287 288 288 287 286 286 286 286 286 285 284 283 282 282 281 281 281 281 281 282 281 280 278 278 279 279 280 280 279 278 276 275 273
281 280 281 282 283 284 285 285 285 286 286 286 286 286 285 286 287 287 286 286 285 283 282 282 281 281 281 281 281 282 282 281 280 281 281 281 281 280 279 277 275 273 273
282 282 282 283 285 286 286 286 286 287 287 286 286 286 285 286 286 285 285 284 284 283 283 282 281 281 282 282 281 281 281 282 282 282 282 281 282 281 280 278 275 273 274
Height
5806 5805 5804 5803 5802 5800 5799 5797 5796 5795 5793 5792 5791 5789 5787 5785 5783 5781 5779 5778 5776 5774 5772 5770 5769 5767 5765 5763 5761 5760 5758 5758 5757 5755 5753 5752 5751 5751 5751 5751 5751 5752 5752
5801 5800 5799 5797 5796 5795 5794 5792 5791 5789 5788 5786 5785 5783 5781 5779 5777 5775 5774 5772 5770 5768 5766 5764 5762 5761 5759 5757 5755 5753 5752 5751 5750 5749 5747 5746 5745 5744 5744 5745 5745 5746 5746
5795 5794 5793 5792 5790 5789 5788 5786 5785 5783 5782 5780 5779 5777 5775 5773 5771 5769 5768 5766 5764 5762 5760 5758 5756 5754 5752 5750 5749 5747 5746 5744 5743 5742 5741 5740 5739 5738 5738 5739 5739 5739 5740
5789 5788 5787 5786 5784 5783 5782 5780 5779 5777 5776 5774 5773 5771 5769 5767 5765 5763 5761 5759 5757 5755 5754 5752 5749 5748 5746 5744 5743 5741 5740 5738 5737 5736 5735 5734 5733 5732 5732 5732 5733 5733 5733
5782 5782 5780 5779 5778 5776 5775 5774 5772 5771 5770 5768 5767 5765 5763 5761 5759 5757 5755 5753 5751 5749 5747 5745 5743 5741 5739 5738 5737 5735 5734 5732 5731 5730 5729 5728 5727 5726 5726 5726 5726 5726 5727
5776 5775 5774 5772 5771 5770 5769 5767 5766 5765 5763 5762 5760 5758 5756 5754 5752 5750 5748 5746 5744 5742 5740 5738 5736 5734 5733 5732 5730 5729 5728 5726 5725 5724 5723 5722 5721 5720 5720 5720 5720 5721 5721
5769 5768 5767 5765 5764 5763 5762 5761 5759 5758 5757 5755 5753 5751 5749 5747 5745 5743 5741 5739 5737 5735 5733 5731 5730 5728 5727 5725 5724 5722 5721 5720 5720 5719 5718 5717 5716 5716 5715 5715 5715 5715 5716
5762 5761 5760 5758 5757 5756 5755 5753 5752 5751 5750 5748 5746 5745 5743 5740 5738 5736 5734 5732 5730 5728 5726 5724 5723 5722 5720 5719 5717 5716 5715 5714 5713 5713 5712 5711 5711 5710 5710 5710 5710 5710 5710
5755 5754 5753 5752 5750 5749 5748 5746 5745 5744 5742 5740 5738 5737 5735 5733 5731 5729 5727 5725 5723 5721 5719 5717 5716 5714 5713 5712 5711 5710 5709 5708 5706 5706 5705 5705 5704 5704 5704 5704 5704 5704 5704
5748 5747 5745 5744 5743 5742 5741 5739 5738 5736 5735 5733 5731 5729 5728 5726 5724 5721 5719 5717 5716 5714 5712 5710 5709 5707 5706 5704 5704 5703 5702 5701 5700 5699 5699 5698 5698 5698 5697 5697 5697 5698 5698
5740 5739 5738 5737 5736 5734 5733 5732 5730 5729 5727 5726 5724 5722 5720 5718 5716 5713 5711 5709 5708 5706 5704 5703 5701 5700 5698 5697 5696 5695 5695 5694 5693 5693 5692 5692 5691 5691 5690 5690 5690 5690 5691
5732 5731 5730 5729 5728 5727 5725 5724 5722 5721 5720 5718 5716 5714 5712 5710 5708 5706 5703 5701 5699 5698 5696 5695 5694 5693 5691 5690 5689 5688 5687 5687 5686 5686 5685 5684 5684 5683 5682 5681 5681 5682 5682
5724 5723 5722 5721 5720 5719 5717 5716 5714 5713 5711 5710 5708 5706 5704 5702 5700 5698 5695 5693 5691 5690 5689 5688 5686 5685 5684 5683 5682 5681 5680 5679 5679 5678 5678 5677 5676 5676 5675 5674 5673 5673 5674
5717 5715 5714 5713 5712 5711 5709 5707 5706 5705 5703 5702 5700 5698 5696 5694 5691 5689 5687 5685 5684 5682 5681 5680 5678 5677 5676 5675 5674 5673 5672 5672 5671 5671 5670 5669 5669 5668 5667 5666 5666 5666 5666
5708 5707 5706 5705 5704 5703 5701 5700 5698 5697 5695 5694 5692 5690 5688 5686 5684 5681 5679 5677 5676 5674 5673 5672 5670 5669 5668 5667 5666 5665 5664 5664 5663 5663 5662 5661 5661 5660 5659 5658 5658 5657 5657
5700 5699 5698 5697 5696 5694 5693 5691 5689 5688 5686 5685 5683 5681 5679 5677 5675 5672 5670 5669 5667 5666 5665 5663 5662 5661 5660 5659 5658 5657 5656 5655 5655 5654 5653 5653 5652 5651 5651 5650 5649 5649 5649
5692 5691 5689 5688 5687 5686 5684 5683 5682 5680 5678 5676 5674 5672 5670 5668 5666 5663 5661 5660 5658 5657 5656 5655 5653 5652 5651 5650 5650 5649 5648 5647 5646 5645 5644 5643 5643 5642 5641 5641 5640 5639 5639
5684 5682 5681 5680 5679 5677 5676 5674 5673 5671 5669 5667 5664 5662 5660 5658 5656 5654 5652 5651 5649 5648 5647 5645 5644 5643 5642 5641 5641 5640 5638 5637 5636 5635 5635 5634 5633 5632 5632 5631 5630 5629 5629
5675 5674 5673 5671 5670 5669 5668 5666 5664 5662 5660 5657 5655 5653 5651 5649 5646 5645 5643 5642 5640 5639 5637 5636 5635 5634 5633 5632 5631 5630 5629 5627 5626 5626 5625 5624 5623 5622 5621 5620 5620 5619 5618
5666 5665 5664 5663 5662 5660 5659 5657 5655 5653 5650 5648 5646 5644 5642 5639 5638 5636 5634 5632 5631 5629 5628 5627 5626 5625 5623 5622 5621 5620 5619 5618 5617 5615 5614 5613 5612 5611 5610 5610 5609 5608 5608
5657 5656 5655 5654 5653 5651 5650 5648 5646 5644 5641 5639 5637 5635 5632 5630 5628 5626 5625 5623 5621 5620 5618 5617 5616 5615 5614 5612 5611 5610 5608 5607 5606 5605 5604 5603 5601 5600 5600 5599 5598 5598 5597
5648 5647 5646 5645 5644 5642 5640 5639 5637 5634 5632 5630 5628 5625 5623 5621 5619 5617 5615 5614 5611 5610 5608 5607 5606 5604 5603 5602 5600 5599 5598 5597 5596 5594 5593 5592 5591 5590 5589 5588 5587 5587 5587
5639 5638 5637 5636 5634 5633 5631 5629 5627 5625 5622 5620 5618 5616 5613 5611 5609 5608 5606 5604 5602 5600 5598 5597 5595 5594 5593 5591 5590 5588 5587 5586 5585 5583 5582 5581 5580 5579 5578 5577 5576 5576 5575
5630 5629 5627 5626 5624 5623 5621 5619 5617 5615 5613 5610 5608 5606 5604 5602 5600 5598 5596 5594 5592 5590 5588 5586 5585 5584 5582 5581 5579 5578 5576 5575 5573 5572 5571 5570 5569 5568 5567 5566 5565 5565 5564
5621 5619 5618 5616 5615 5613 5611 5609 5607 5604 5602 5600 5598 5596 5594 5592 5590 5588 5585 5583 5581 5580 5578 5576 5575 5573 5572 5570 5569 5567 5566 5564 5563 5562 5560 5559 5558 5557 5556 5555 5554 5554 5554
5611 5610 5608 5606 5605 5603 5600 5598 5596 5594 5592 5590 5588 5586 5584 5582 5580 5578 5575 5573 5571 5570 5568 5566 5565 5563 5561 5560 5558 5557 5555 5554 5552 5551 5549 5548 5547 5546 5545 5544 5544 5543 5543